DW6648 Weather Reports


Display with metric or nautical units.
time (UTC)temp
F
wind
direction
speed
MPH
gust
MPH
rain 1hr
in
rain 24hr
in
rain mn
in
humidity
%
barometer
mb
20260502151308 55 95 0.0 0.0 0.02 0.04 0.04 86 1012.4
20260502150809 55 90 0.0 0.0 0.02 0.04 0.04 86 1012.5
20260502130307 65 141 0.0 0.0 0.00 0.00 0.00 63 1013.7
20260502123807 65 103 0.0 0.0 0.00 0.00 0.00 61 1014.0
20260502123307 65 122 0.0 0.0 0.00 0.00 0.00 61 1014.3
20260502120806 64 144 0.0 0.0 0.00 0.00 0.00 59 1014.8
20260502120306 64 146 0.0 0.0 0.00 0.00 0.00 59 1014.9
20260502115306 64 187 0.0 0.0 0.00 0.00 0.00 58 1014.8
20260502114805 64 181 0.0 0.0 0.00 0.00 0.00 59 1014.9
20260502113305 66 203 0.0 0.0 0.00 0.00 0.00 60 1015.0
20260502112805 67 141 0.0 0.0 0.00 0.00 0.00 61 1015.1
20260502112306 67 172 0.0 0.0 0.00 0.00 0.00 63 1015.1
20260502111805 66 195 0.0 0.0 0.00 0.00 0.00 64 1015.1
20260502110807 66 86 0.0 0.0 0.00 0.00 0.00 65 1015.2
20260502110304 65 129 0.0 0.0 0.00 0.00 0.00 65 1015.3
20260502105306 65 188 0.0 0.0 0.00 0.00 0.00 67 1015.5
20260502103305 64 119 0.0 0.0 0.00 0.00 0.00 66 1015.9
20260502102805 64 100 0.0 0.0 0.00 0.00 0.00 67 1015.9
20260502101304 63 107 0.0 0.0 0.00 0.00 0.00 71 1016.2
20260502100805 62 139 0.0 0.0 0.00 0.00 0.00 72 1016.2
20260502100304 62 125 0.0 0.0 0.00 0.00 0.00 72 1016.4
20260502091304 59 123 0.0 0.0 0.00 0.00 0.00 80 1016.8
20260502071328 52 200 0.0 0.0 0.00 0.00 0.00 90 1017.8
20260502070327 51 103 0.0 0.0 0.00 0.00 0.00 90 1017.8
20260502065828 51 121 0.0 0.0 0.00 0.00 0.00 90 1017.9
20260502064828 51 72 0.0 0.0 0.00 0.00 0.00 90 1017.8
20260502064327 51 72 0.0 0.0 0.00 0.00 0.00 90 1017.8
20260502063827 51 72 0.0 0.0 0.00 0.00 0.00 90 1017.7
20260502061828 50 21 0.0 0.0 0.00 0.00 0.00 90 1017.6
20260502060326 50 12 0.0 0.0 0.00 0.00 0.00 90 1017.8
20260502055327 50 12 0.0 0.0 0.00 0.00 0.00 90 1017.8
20260502054827 50 28 0.0 0.0 0.00 0.00 0.00 90 1017.7
20260502054327 50 63 0.0 0.0 0.00 0.00 0.00 89 1017.7
20260502052326 50 76 0.0 0.0 0.00 0.00 0.00 89 1017.7
20260502051826 50 96 0.0 0.0 0.00 0.00 0.00 89 1017.6
20260502050325 50 96 0.0 0.0 0.00 0.00 0.00 89 1017.9
20260502045325 50 95 0.0 0.0 0.00 0.00 0.00 89 1017.9
20260502044325 50 95 0.0 0.0 0.00 0.00 0.00 89 1017.9
20260502043825 50 122 0.0 0.0 0.00 0.00 0.00 89 1017.8
20260502043325 50 213 0.0 0.0 0.00 0.00 0.00 89 1017.8
20260502041325 50 193 0.0 0.0 0.00 0.00 0.00 89 1017.9
20260502040825 50 193 0.0 0.0 0.00 0.00 0.00 89 1018.0
20260502035324 51 193 0.0 0.0 0.00 0.00 0.00 89 1018.1
20260502034324 51 239 0.0 0.0 0.00 0.00 0.00 89 1018.2
20260502032824 51 244 0.0 0.0 0.00 0.00 0.00 89 1018.1
20260502032324 51 303 0.0 0.0 0.00 0.00 0.00 89 1018.2
20260502031323 51 315 0.0 0.0 0.00 0.00 0.00 89 1018.2
20260502025323 50 305 0.0 0.0 0.00 0.00 0.00 89 1018.3
20260502024823 50 301 0.0 0.0 0.00 0.00 0.00 89 1018.4
20260502024323 50 319 0.0 0.0 0.00 0.00 0.00 89 1018.5
20260502022322 50 303 0.0 0.0 0.00 0.00 0.00 88 1018.7
20260502021822 50 322 0.0 0.0 0.00 0.00 0.00 88 1018.7
20260502021322 49 333 0.0 0.0 0.00 0.00 0.00 88 1018.7
20260502020823 49 311 0.0 0.0 0.00 0.00 0.00 88 1018.7
20260502015822 49 240 0.0 0.0 0.00 0.00 0.00 87 1018.9
20260502014821 48 240 0.0 0.0 0.00 0.00 0.00 86 1018.9
20260502014321 48 240 0.0 0.0 0.00 0.00 0.00 86 1018.8
20260502012821 48 240 0.0 0.0 0.00 0.00 0.00 86 1019.0
20260502012321 48 240 0.0 0.0 0.00 0.00 0.00 86 1019.1
20260502011822 48 240 0.0 0.0 0.00 0.00 0.00 86 1019.1
20260502011321 49 240 0.0 0.0 0.00 0.00 0.00 86 1019.1
20260502010821 49 240 0.0 0.0 0.00 0.00 0.00 86 1019.1
20260502005821 49 240 0.0 0.0 0.00 0.00 0.00 86 1019.1
20260502003820 50 240 0.0 0.0 0.00 0.00 0.00 87 1019.2
20260502002319 51 240 0.0 0.0 0.00 0.00 0.00 87 1019.4
20260502001819 51 240 0.0 0.0 0.00 0.00 0.00 87 1019.4
20260502000319 51 240 0.0 0.0 0.00 0.00 0.00 86 1019.5
20260501235318 51 242 0.0 0.0 0.00 0.00 0.00 86 1019.4
20260501233318 51 210 0.0 0.0 0.00 0.00 0.00 86 1019.6
20260501230318 52 234 0.0 0.0 0.00 0.00 0.00 86 1019.9
20260501225820 52 242 0.0 0.0 0.00 0.00 0.00 87 1020.0
20260501225318 52 235 0.0 0.0 0.00 0.00 0.00 86 1020.0
20260501223318 53 238 0.0 0.0 0.00 0.00 0.00 86 1020.1
20260501222318 53 243 0.0 0.0 0.00 0.00 0.00 86 1020.1
20260501221818 53 239 0.0 0.0 0.00 0.00 0.00 86 1020.1
20260501215317 53 270 0.0 0.0 0.00 0.00 0.00 85 1020.0
20260501214817 53 239 0.0 0.0 0.00 0.00 0.00 85 1020.0
20260501213817 54 225 0.0 0.0 0.00 0.00 0.00 85 1019.9
20260501213317 54 230 0.0 0.0 0.00 0.00 0.00 85 1020.0
20260501212317 53 252 0.0 0.0 0.00 0.00 0.00 84 1019.9
20260501211817 53 259 0.0 0.0 0.00 0.00 0.00 84 1019.9
20260501211317 53 247 0.0 0.0 0.00 0.00 0.00 84 1019.9
20260501210817 53 250 0.0 0.0 0.00 0.00 0.00 84 1019.9
20260501210316 53 267 0.0 0.0 0.00 0.00 0.00 84 1019.8
20260501203816 53 271 0.0 0.0 0.00 0.00 0.00 83 1019.8
20260501203316 54 265 0.0 0.0 0.00 0.00 0.00 82 1019.8
20260501202816 54 247 0.0 0.0 0.00 0.00 0.00 82 1019.8
20260501201316 54 247 0.0 0.0 0.00 0.00 0.00 82 1019.7
20260501200816 54 238 0.0 0.0 0.00 0.00 0.00 81 1019.7
20260501195315 55 248 0.0 0.0 0.00 0.00 0.00 81 1019.4
20260501194815 55 236 0.0 0.0 0.00 0.00 0.00 80 1019.5
20260501193315 55 243 0.0 0.0 0.00 0.00 0.00 80 1019.3
20260501192815 55 235 0.0 0.0 0.00 0.00 0.00 79 1019.3
20260501190816 56 241 0.0 0.0 0.00 0.00 0.00 78 1019.2
20260501184814 58 245 0.0 0.0 0.00 0.00 0.00 76 1019.2
20260501184314 58 254 0.0 0.0 0.00 0.00 0.00 75 1019.2
20260501183814 58 245 0.0 0.0 0.00 0.00 0.00 75 1019.2
20260501183315 58 246 0.0 0.0 0.00 0.00 0.00 75 1019.2
20260501182313 59 263 0.0 0.0 0.00 0.00 0.00 74 1019.1
20260501181813 59 238 0.0 0.0 0.00 0.00 0.00 74 1019.1
20260501180813 60 266 0.0 0.0 0.00 0.00 0.00 73 1019.2
20260501175813 60 290 0.0 0.0 0.00 0.00 0.00 72 1019.1
20260501174813 60 250 0.0 0.0 0.00 0.00 0.00 72 1019.1
20260501174313 61 220 0.0 0.0 0.00 0.00 0.00 72 1019.0
20260501173813 61 209 0.0 0.0 0.00 0.00 0.00 72 1019.0
20260501173313 61 264 0.0 0.0 0.00 0.00 0.00 71 1019.1
20260501165812 62 198 0.0 0.0 0.00 0.00 0.00 71 1019.2
20260501164813 62 233 0.0 0.0 0.00 0.00 0.00 70 1019.2
20260501163813 62 196 0.0 0.0 0.00 0.00 0.00 69 1019.2
20260501163312 62 246 0.0 0.0 0.00 0.00 0.00 69 1019.2
20260501162812 62 241 0.0 0.0 0.00 0.00 0.00 68 1019.2
20260501161811 63 202 0.0 0.0 0.00 0.00 0.00 66 1019.1
20260501160311 63 201 0.0 0.0 0.00 0.00 0.00 65 1019.1
20260501155811 64 206 0.0 0.0 0.00 0.00 0.00 64 1019.1
20260501154811 64 212 0.0 0.0 0.00 0.00 0.00 66 1019.1
20260501154311 64 203 0.0 0.0 0.00 0.00 0.00 64 1019.2
20260501153312 65 216 0.0 0.0 0.00 0.00 0.00 64 1019.2